Overview Statistics Trail Chart Weather Telemetry Raw packets
 

This is the latest recevied weather packets stored in our database for station/object WX4SGA. If no packets are shown the sender has not sent any weather packets the latest 10 day(s).

<< 93 94 95 96 97 98 99 >>
Time Temp. Humidity Pressure Rain* Wind** Luminosity Snow
1787921744 23.89° C 99% 1017.3 hPa 0 mm - 68 W/m² -
1787921444 23.89° C 99% 1017.3 hPa 0 mm - 55 W/m² -
1787921138 23.89° C 99% 1016.9 hPa 0 mm - 48 W/m² -
1787920833 23.89° C 99% 1016.9 hPa 0 mm - 47 W/m² -
1787920527 23.89° C 99% 1016.9 hPa 0 mm - 47 W/m² -
1787920227 23.89° C 99% 1016.9 hPa 0 mm - 48 W/m² -
1787919921 23.89° C 99% 1016.9 hPa 0 mm - 51 W/m² -
1787919619 23.89° C 99% 1017.3 hPa 0 mm - 50 W/m² -
1787919315 23.33° C 99% 1016.9 hPa 0 mm - 46 W/m² -
1787919010 23.33° C 99% 1016.9 hPa 0 mm - 43 W/m² -
1787918705 23.33° C 99% 1016.9 hPa 0 mm - 38 W/m² -
1787918413 23.33° C 99% 1016.9 hPa 0 mm - 31 W/m² -
1787918097 23.33° C 99% 1016.9 hPa 0 mm - 27 W/m² -
1787917792 23.33° C 99% 1016.9 hPa 0 mm - 24 W/m² -
1787917489 23.33° C 99% 1016.9 hPa 0 mm - 20 W/m² -
1787917184 23.33° C 99% 1016.9 hPa 0 mm - 17 W/m² -
1787916884 23.33° C 99% 1016.9 hPa 0 mm - 14 W/m² -
1787916583 23.33° C 99% 1016.6 hPa 0 mm - 11 W/m² -
1787916278 23.33° C 99% 1016.6 hPa 0 mm - 8 W/m² -
1787915974 23.33° C 99% 1016.6 hPa 0 mm - 5 W/m² -
1787915669 23.33° C 99% 1016.6 hPa 0 mm - 3 W/m² -
1787915364 23.33° C 99% 1016.3 hPa 0 mm - 2 W/m² -
1787915059 22.78° C 99% 1016.6 hPa 0 mm - 1 W/m² -
1787914757 22.78° C 99% 1016.3 hPa 0 mm - 0 W/m² -
1787914453 22.78° C 99% 1016.3 hPa 0 mm - 0 W/m² -

* Rain latest hour (hover to see other rain measurements)
** Current wind speed in m/s (hover to see current wind gust speed)